Regional Weather Roundup
Issued by NWS

Home | Current Version | Previous Version | Graphics & Text | Print | Product List | Glossary On
Versions: 1 2 3 4 5 6 7 8 9 10 11 12 13 14 15 16 17 18 19 20 21 22 23 24 25 26 27 28 29 30 31 32 33 34 35 36 37 38 39 40 41 42 43 44 45 46 47 48 49 50
000
ASUS43 KBIS 260910
RWRND

NORTH DAKOTA REGIONAL WEATHER ROUNDUP
NATIONAL WEATHER SERVICE BISMARCK ND
400 AM CDT MON JUN 26 2017

NOTE: "FAIR" INDICATES FEW OR NO CLOUDS BELOW 12,000 FEET WITH NO
SIGNIFICANT WEATHER AND/OR OBSTRUCTIONS TO VISIBILITY.


NDZ001>003-009>011-017-261000-
NORTHWEST NORTH DAKOTA

CITY           SKY/WX    TMP DP  RH WIND       PRES   REMARKS
WILLISTON      CLEAR     47  42  83 CALM      30.24F
MINOT          CLEAR     46  40  79 CALM      30.24S
MINOT AFB      CLEAR     39  36  89 W5        30.23S
$$

NDZ018>021-031>035-040>046-261000-
SOUTHWEST NORTH DAKOTA

CITY           SKY/WX    TMP DP  RH WIND       PRES   REMARKS
BISMARCK       CLEAR     44  42  93 E3        30.25F
DICKINSON      CLEAR     45  40  82 SE9       30.23S
GARRISON         N/A     41  38  89 CALM      30.24S
HETTINGER ARPT CLEAR     40  35  83 SE5       30.25F
$$

NDZ004>008-012>016-024-026-027-054-261000-
NORTHEAST NORTH DAKOTA

CITY           SKY/WX    TMP DP  RH WIND       PRES   REMARKS
GRAND FORKS    CLEAR     44  42  93 W7        30.19F
GRND FRKS AFB  CLEAR     43  40  91 W6        30.20F
DEVILS LAKE    CLEAR     43  40  89 W5        30.23F
$$

NDZ022-023-025-028>030-036>039-047>053-261000-
SOUTHEAST NORTH DAKOTA

CITY           SKY/WX    TMP DP  RH WIND       PRES   REMARKS
FARGO          CLEAR     42  38  85 CALM      30.21S
JAMESTOWN      CLEAR     43  40  89 CALM      30.23S
$$





USA.gov is the U.S. government's official web portal to all federal, state and local government web resources and services.